This demonstration page uses our WeatherBlox Daily Observations layout. Learn more.

Left ArrowRight Arrow

Hourly Observations for September 24, 2022

Temp ( °F °C ) Dew Point ( °F °C ) Humidity (%) Winds ( mph kmh ) Pressure ( in mb ) Visibility ( mi km ) Precip ( " mm )
12:53 am 00:53 Clear 68 20 49 9.4 50 50 NNW 6 9 29.95 1014 10 16 0.00 0.00
1:53 am 01:53 Clear 67 19.4 50 10 55 55 NNW 5 7 29.96 1015 10 16 0.00 0.00
2:53 am 02:53 Clear 64 17.8 50 10 60 60 ENE 3 6 29.96 1015 10 16 0.00 0.00
3:53 am 03:53 Clear 63 17.2 51 10.6 65 65 Calm 29.96 1015 10 16 0.00 0.00
4:53 am 04:53 Clear 59 15 50 10 72 72 Calm 29.96 1015 10 16 0.00 0.00
5:53 am 05:53 Clear 58 14.4 50 10 75 75 Calm 29.97 1015 10 16 0.00 0.00
6:53 am 06:53 Clear 58 14.4 50 10 75 75 Calm 29.98 1015 10 16 0.00 0.00
7:53 am 07:53 Sunny 60 15.6 51 10.6 72 72 Calm 30.00 1016 10 16 0.00 0.00
8:53 am 08:53 Sunny 67 19.4 52 11.1 59 59 Calm 30.01 1016 10 16 0.00 0.00
9:53 am 09:53 Sunny 80 26.7 48 8.9 33 33 NNW 5 7 30.01 1016 10 16 0.00 0.00
10:53 am 10:53 Sunny 87 30.6 42 5.6 21 21 N 8 13 30.01 1016 10 16 0.00 0.00
11:53 am 11:53 Sunny 90 32.2 41 5 18 18 N 8 13 30.00 1016 10 16 0.00 0.00
12:53 pm 12:53 Sunny 94 34.4 41 5 16 16 Calm 29.99 1016 10 16 0.00 0.00
1:53 pm 13:53 Sunny 96 35.6 39 3.9 14 14 NE 5 7 29.97 1015 10 16 0.00 0.00
2:53 pm 14:53 Sunny 97 36.1 30 -1.1 9 9 SW 7 11 29.96 1015 10 16 0.00 0.00
3:53 pm 15:53 Sunny 97 36.1 32 0 10 10 VRB 7 11 29.95 1014 10 16 0.00 0.00
4:53 pm 16:53 Sunny 97 36.1 36 2.2 12 12 SE 5 7 29.95 1014 10 16 0.00 0.00
5:53 pm 17:53 Sunny 95 35 39 3.9 14 14 SSE 7 11 29.94 1014 10 16 0.00 0.00
6:53 pm 18:53 Sunny 90 32.2 42 5.6 19 19 SE 5 7 29.94 1014 10 16 0.00 0.00
7:53 pm 19:53 Clear 85 29.4 40 4.4 20 20 SSW 5 7 29.95 1014 10 16 0.00 0.00
8:53 pm 20:53 Clear 76 24.4 44 6.7 32 32 NE 7 11 29.96 1015 10 16 0.00 0.00
9:53 pm 21:53 Clear 74 23.3 45 7.2 36 36 Calm 29.98 1015 10 16 0.00 0.00
10:53 pm 22:53 Clear 70 21.1 45 7.2 41 41 Calm 29.98 1015 10 16 0.00 0.00
11:53 pm 23:53 Clear 68 20 49 9.4 50 50 N 3 6 29.99 1016 10 16 0.00 0.00

Powered by AerisWeather